Location: Eitze
(52.9840°N, 9.6894°E)
Time: 00:58:17
(UTC+00:00)

Cosmos 1328 Rocket - Pass Details

Date: 19 May 2025
Orbit: 596 x 618 km, 82.5° (Epoch: 23 June)

Event Time Altitude Azimuth Distance (km) Brightness Sun altitude
Exits shadow 23:23:16 28° 147° (SSE) 1,127 4.4 -17.0°
Maximum altitude 23:25:02 45° 93° (E) 831 4.2 -17.0°
Drops below altitude 10° 23:29:10 10° 22° (NNE) 1,965 7.3 -17.0°
Sets 23:31:28 0° 16° (NNE) 2,877 8.6 -17.0°
